Location: Gad�tanya
(48.0500°N, 20.8500°E)
Time: 11:04:00
(UTC+00:00)

Cosmos 1844 - Pass Details

Date: 05 July 2020
Orbit: 822 x 868 km, 70.9° (Epoch: 14 August)

Event Time Altitude Azimuth Distance (km) Brightness Sun altitude
Rises 20:16:54 0° 328° (NNW) 3,460 9.1 -12.2°
Reaches altitude 10° 20:19:27 10° 323° (NW) 2,515 7.7 -12.4°
Maximum altitude 20:24:59 48° 251° (WSW) 1,108 4.4 -12.9°
Enters shadow 20:29:42 14° 180° (S) 2,220 5.4 -13.4°
